TimePST,TemperatureF,Dew PointF,Humidity,Sea Level PressureIn,VisibilityMPH,Wind Direction,Wind SpeedMPH,Gust SpeedMPH,PrecipitationIn,Events,Conditions,WindDirDegrees,DateUTC
12:56 AM,23.0,21.0,92,30.38,-9999.0,SSW,3.5,-,N/A,,Mostly Cloudy,200,2013-12-25 08:56:00
1:06 AM,23.0,21.0,92,30.52,-9999.0,Calm,Calm,-,N/A,,Scattered Clouds,0,2013-12-25 09:06:00
1:13 AM,21.9,19.0,89,30.52,-9999.0,Calm,Calm,-,N/A,,Mostly Cloudy,0,2013-12-25 09:13:00
1:47 AM,23.0,21.0,92,30.52,-9999.0,South,4.6,-,N/A,,Overcast,190,2013-12-25 09:47:00
1:56 AM,24.1,19.9,84,30.38,-9999.0,SSW,5.8,-,N/A,,Overcast,210,2013-12-25 09:56:00
2:56 AM,24.1,19.9,84,30.38,-9999.0,Calm,Calm,-,N/A,,Overcast,0,2013-12-25 10:56:00
3:43 AM,25.0,21.0,85,30.52,-9999.0,South,3.5,-,N/A,,Overcast,170,2013-12-25 11:43:00
3:56 AM,25.0,21.0,85,30.38,-9999.0,Calm,Calm,-,N/A,,Overcast,0,2013-12-25 11:56:00
4:56 AM,21.9,17.1,82,30.38,-9999.0,Calm,Calm,-,N/A,,Overcast,0,2013-12-25 12:56:00
5:56 AM,21.0,16.0,81,30.38,-9999.0,NNE,3.5,-,N/A,,Overcast,20,2013-12-25 13:56:00
6:56 AM,21.9,17.1,82,30.39,-9999.0,NNW,3.5,-,N/A,,Overcast,330,2013-12-25 14:56:00
7:45 AM,24.1,19.0,81,30.54,-9999.0,Calm,Calm,-,N/A,,Overcast,0,2013-12-25 15:45:00
7:56 AM,25.0,19.9,81,30.40,-9999.0,Calm,Calm,-,N/A,,Overcast,0,2013-12-25 15:56:00
8:56 AM,28.9,23.0,78,30.42,-9999.0,NE,3.5,-,N/A,,Overcast,40,2013-12-25 16:56:00
9:56 AM,33.1,27.0,78,30.42,-9999.0,Calm,Calm,-,N/A,,Overcast,0,2013-12-25 17:56:00
10:56 AM,-9999,-9999,N/A,30.41,-9999.0,Calm,Calm,-,N/A,,Overcast,0,2013-12-25 18:56:00
11:56 AM,-9999,-9999,N/A,30.38,-9999.0,Calm,Calm,-,N/A,,Overcast,0,2013-12-25 19:56:00
12:56 PM,-9999,-9999,N/A,30.36,-9999.0,ENE,3.5,-,N/A,,Partly Cloudy,60,2013-12-25 20:56:00
1:56 PM,-9999,-9999,N/A,30.34,-9999.0,NE,4.6,-,N/A,,Clear,40,2013-12-25 21:56:00
2:56 PM,-9999,-9999,N/A,30.32,-9999.0,NNE,4.6,-,N/A,,Clear,30,2013-12-25 22:56:00
3:56 PM,-9999,-9999,N/A,30.33,-9999.0,NE,5.8,-,N/A,,Clear,40,2013-12-25 23:56:00
4:56 PM,-9999,-9999,N/A,30.33,-9999.0,NNE,3.5,-,N/A,,Clear,30,2013-12-26 00:56:00
5:56 PM,-9999,-9999,N/A,30.32,-9999.0,Calm,Calm,-,N/A,,Clear,0,2013-12-26 01:56:00
6:56 PM,-9999,-9999,N/A,30.33,-9999.0,WSW,3.5,-,N/A,,Clear,240,2013-12-26 02:56:00
7:56 PM,-9999,-9999,N/A,30.34,-9999.0,SSE,4.6,-,N/A,,Clear,160,2013-12-26 03:56:00
8:13 PM,-9999,-9999,N/A,30.47,-9999.0,SE,4.6,-,N/A,,Partly Cloudy,140,2013-12-26 04:13:00
8:56 PM,-9999,-9999,N/A,30.35,-9999.0,Calm,Calm,-,N/A,,Partly Cloudy,0,2013-12-26 04:56:00
9:56 PM,-9999,-9999,N/A,30.35,-9999.0,South,4.6,-,N/A,,Clear,180,2013-12-26 05:56:00
10:56 PM,-9999,-9999,N/A,30.35,-9999.0,Calm,Calm,-,N/A,,Clear,0,2013-12-26 06:56:00
11:56 PM,-9999,-9999,N/A,30.35,-9999.0,South,3.5,-,N/A,,Clear,170,2013-12-26 07:56:00